Time,TemperatureF,DewpointF,PressureIn,WindDirection,WindDirectionDegrees,WindSpeedMPH,WindSpeedGustMPH,Humidity,HourlyPrecipIn,Conditions,Clouds,dailyrainin,SolarRadiationWatts/m^2,SoftwareType,DateUTC
2013-05-20 00:06:00,56.2,52.0,29.99,ESE,114,0.0,1.0,84,0.00,,,0.00,733,weatherlink.com 1.10,2013-05-20 07:06:00,
2013-05-20 00:21:00,56.6,52.0,29.99,SE,124,0.0,1.0,83,0.00,,,0.00,733,weatherlink.com 1.10,2013-05-20 07:21:00,
2013-05-20 00:36:00,56.7,52.0,29.99,SE,140,2.0,2.0,83,0.00,,,0.00,733,weatherlink.com 1.10,2013-05-20 07:36:00,
2013-05-20 00:51:00,56.8,52.0,29.99,SE,124,2.0,3.0,85,0.00,,,0.00,733,weatherlink.com 1.10,2013-05-20 07:51:00,
2013-05-20 01:06:00,56.7,53.0,29.99,ESE,119,0.0,3.0,86,0.00,,,0.00,733,weatherlink.com 1.10,2013-05-20 08:06:00,
2013-05-20 01:21:00,56.3,53.0,29.98,SE,131,1.0,1.0,87,0.00,,,0.00,733,weatherlink.com 1.10,2013-05-20 08:21:00,
2013-05-20 01:36:00,55.7,52.0,29.98,SE,133,2.0,2.0,88,0.00,,,0.00,733,weatherlink.com 1.10,2013-05-20 08:36:00,
2013-05-20 01:51:00,55.5,52.0,29.98,ESE,108,0.0,1.0,89,0.00,,,0.00,733,weatherlink.com 1.10,2013-05-20 08:51:00,
2013-05-20 02:06:00,55.6,53.0,29.98,ESE,108,0.0,1.0,89,0.00,,,0.00,733,weatherlink.com 1.10,2013-05-20 09:06:00,
2013-05-20 02:36:00,55.3,53.0,29.98,SE,124,1.0,2.0,90,0.00,,,0.00,733,weatherlink.com 1.10,2013-05-20 09:36:00,
2013-05-20 02:51:00,55.3,52.0,29.98,ESE,115,0.0,2.0,89,0.00,,,0.00,733,weatherlink.com 1.10,2013-05-20 09:51:00,
2013-05-20 03:06:00,55.1,52.0,29.98,ESE,123,0.0,1.0,89,0.00,,,0.00,733,weatherlink.com 1.10,2013-05-20 10:06:00,
2013-05-20 03:21:00,57.5,51.0,29.98,South,178,0.0,1.0,80,0.00,,,0.00,733,weatherlink.com 1.10,2013-05-20 10:21:00,
2013-05-20 03:36:00,56.0,50.0,29.98,NNE,30,0.0,1.0,81,0.00,,,0.00,733,weatherlink.com 1.10,2013-05-20 10:36:00,
2013-05-20 03:51:00,58.4,49.0,29.98,NE,44,0.0,1.0,72,0.00,,,0.00,733,weatherlink.com 1.10,2013-05-20 10:51:00,
2013-05-20 04:06:00,56.3,51.0,29.98,ESE,121,0.0,0.0,83,0.00,,,0.00,733,weatherlink.com 1.10,2013-05-20 11:06:00,
2013-05-20 04:21:00,55.6,52.0,29.98,ESE,120,0.0,1.0,87,0.00,,,0.00,733,weatherlink.com 1.10,2013-05-20 11:21:00,
2013-05-20 04:36:00,55.2,52.0,29.98,ESE,113,0.0,1.0,89,0.00,,,0.00,733,weatherlink.com 1.10,2013-05-20 11:36:00,
2013-05-20 04:51:00,55.0,52.0,29.98,ESE,122,0.0,0.0,89,0.00,,,0.00,733,weatherlink.com 1.10,2013-05-20 11:51:00,
2013-05-20 05:06:00,55.1,52.0,29.98,ESE,122,0.0,1.0,88,0.00,,,0.00,733,weatherlink.com 1.10,2013-05-20 12:06:00,
2013-05-20 05:21:00,55.6,49.0,29.97,ENE,70,0.0,1.0,78,0.00,,,0.00,733,weatherlink.com 1.10,2013-05-20 12:21:00,
2013-05-20 05:36:00,55.8,50.0,29.98,NE,55,0.0,1.0,80,0.00,,,0.00,733,weatherlink.com 1.10,2013-05-20 12:36:00,
2013-05-20 05:51:00,56.3,48.0,29.97,NE,54,0.0,1.0,75,0.00,,,0.00,733,weatherlink.com 1.10,2013-05-20 12:51:00,
2013-05-20 06:06:00,56.7,52.0,29.98,NE,55,0.0,0.0,84,0.00,,,0.00,733,weatherlink.com 1.10,2013-05-20 13:06:00,
2013-05-20 06:21:00,55.7,52.0,29.99,ESE,115,0.0,1.0,88,0.00,,,0.00,733,weatherlink.com 1.10,2013-05-20 13:21:00,
2013-05-20 06:36:00,55.5,53.0,29.99,ESE,121,0.0,1.0,90,0.00,,,0.00,733,weatherlink.com 1.10,2013-05-20 13:36:00,
2013-05-20 06:51:00,55.6,53.0,29.99,ESE,121,0.0,1.0,90,0.00,,,0.00,733,weatherlink.com 1.10,2013-05-20 13:51:00,
2013-05-20 07:06:00,55.9,53.0,29.99,SE,128,0.0,1.0,89,0.00,,,0.00,733,weatherlink.com 1.10,2013-05-20 14:06:00,
2013-05-20 07:21:00,56.8,53.0,30.00,ESE,118,0.0,0.0,86,0.00,,,0.00,733,weatherlink.com 1.10,2013-05-20 14:21:00,
2013-05-20 07:36:00,57.3,53.0,30.00,ESE,118,0.0,0.0,84,0.00,,,0.00,733,weatherlink.com 1.10,2013-05-20 14:36:00,
2013-05-20 07:51:00,57.8,53.0,30.00,ESE,121,0.0,1.0,83,0.00,,,0.00,733,weatherlink.com 1.10,2013-05-20 14:51:00,
2013-05-20 08:06:00,58.7,53.0,30.00,SSE,148,0.0,2.0,82,0.00,,,0.00,733,weatherlink.com 1.10,2013-05-20 15:06:00,
2013-05-20 08:21:00,61.4,55.0,30.00,SSE,167,0.0,2.0,79,0.00,,,0.00,733,weatherlink.com 1.10,2013-05-20 15:21:00,
2013-05-20 08:36:00,63.8,55.0,30.00,SE,129,0.0,2.0,74,0.00,,,0.00,733,weatherlink.com 1.10,2013-05-20 15:36:00,
2013-05-20 08:51:00,66.5,56.0,30.00,SE,133,0.0,1.0,70,0.00,,,0.00,733,weatherlink.com 1.10,2013-05-20 15:51:00,
2013-05-20 09:06:00,68.1,56.0,30.00,SSE,148,1.0,1.0,66,0.00,,,0.00,733,weatherlink.com 1.10,2013-05-20 16:06:00,
2013-05-20 09:22:00,69.2,58.0,30.00,South,175,1.0,3.0,67,0.00,,,0.00,733,weatherlink.com 1.10,2013-05-20 16:22:00,
2013-05-20 09:37:00,69.8,57.0,30.00,SW,217,0.0,4.0,65,0.00,,,0.00,733,weatherlink.com 1.10,2013-05-20 16:37:00,
2013-05-20 09:52:00,71.1,58.0,30.00,WSW,256,0.0,3.0,64,0.00,,,0.00,733,weatherlink.com 1.10,2013-05-20 16:52:00,
2013-05-20 10:07:00,71.6,57.0,30.00,SW,225,1.0,4.0,61,0.00,,,0.00,733,weatherlink.com 1.10,2013-05-20 17:07:00,
2013-05-20 10:22:00,71.8,57.0,30.00,South,191,2.0,3.0,61,0.00,,,0.00,733,weatherlink.com 1.10,2013-05-20 17:22:00,
2013-05-20 10:37:00,73.2,57.0,30.00,West,260,2.0,4.0,58,0.00,,,0.00,733,weatherlink.com 1.10,2013-05-20 17:37:00,
2013-05-20 10:52:00,73.4,57.0,30.00,SW,223,1.0,4.0,57,0.00,,,0.00,733,weatherlink.com 1.10,2013-05-20 17:52:00,
2013-05-20 11:07:00,74.3,57.0,30.00,SSE,153,1.0,4.0,55,0.00,,,0.00,733,weatherlink.com 1.10,2013-05-20 18:07:00,
2013-05-20 11:22:00,76.1,57.0,30.00,SW,230,3.0,4.0,51,0.00,,,0.00,733,weatherlink.com 1.10,2013-05-20 18:22:00,
2013-05-20 11:37:00,76.9,56.0,30.00,West,262,1.0,5.0,49,0.00,,,0.00,733,weatherlink.com 1.10,2013-05-20 18:37:00,
2013-05-20 11:52:00,78.6,56.0,30.00,South,191,3.0,5.0,46,0.00,,,0.00,733,weatherlink.com 1.10,2013-05-20 18:52:00,
2013-05-20 12:07:00,78.5,54.0,29.99,South,187,1.0,5.0,43,0.00,,,0.00,733,weatherlink.com 1.10,2013-05-20 19:07:00,
2013-05-20 12:22:00,79.2,55.0,29.99,SSW,210,3.0,7.0,44,0.00,,,0.00,733,weatherlink.com 1.10,2013-05-20 19:22:00,
2013-05-20 12:37:00,80.6,55.0,29.99,South,180,3.0,7.0,42,0.00,,,0.00,733,weatherlink.com 1.10,2013-05-20 19:37:00,
2013-05-20 12:52:00,80.0,55.0,29.99,SSW,206,2.0,8.0,42,0.00,,,0.00,733,weatherlink.com 1.10,2013-05-20 19:52:00,
2013-05-20 13:07:00,78.3,52.0,29.99,SSW,205,3.0,10.0,40,0.00,,,0.00,733,weatherlink.com 1.10,2013-05-20 20:07:00,
2013-05-20 13:22:00,78.2,55.0,29.99,South,184,6.0,9.0,45,0.00,,,0.00,733,weatherlink.com 1.10,2013-05-20 20:22:00,
2013-05-20 13:37:00,77.5,55.0,29.98,SE,142,5.0,8.0,46,0.00,,,0.00,733,weatherlink.com 1.10,2013-05-20 20:37:00,
2013-05-20 13:52:00,78.6,56.0,29.98,SSE,157,3.0,10.0,46,0.00,,,0.00,733,weatherlink.com 1.10,2013-05-20 20:52:00,
2013-05-20 14:07:00,78.4,55.0,29.98,South,187,6.0,8.0,44,0.00,,,0.00,733,weatherlink.com 1.10,2013-05-20 21:07:00,
2013-05-20 14:22:00,76.4,56.0,29.98,SSE,157,5.0,10.0,49,0.00,,,0.00,733,weatherlink.com 1.10,2013-05-20 21:22:00,
2013-05-20 14:37:00,76.0,55.0,29.98,ESE,123,2.0,9.0,49,0.00,,,0.00,733,weatherlink.com 1.10,2013-05-20 21:37:00,
2013-05-20 14:52:00,76.8,56.0,29.98,SSE,168,6.0,9.0,49,0.00,,,0.00,733,weatherlink.com 1.10,2013-05-20 21:52:00,
2013-05-20 15:07:00,75.8,55.0,29.97,SW,225,4.0,9.0,49,0.00,,,0.00,733,weatherlink.com 1.10,2013-05-20 22:07:00,
2013-05-20 15:22:00,76.9,51.0,29.97,SSE,148,4.0,11.0,40,0.00,,,0.00,733,weatherlink.com 1.10,2013-05-20 22:22:00,
2013-05-20 15:37:00,75.1,53.0,29.96,SSE,162,5.0,9.0,46,0.00,,,0.00,733,weatherlink.com 1.10,2013-05-20 22:37:00,
2013-05-20 15:52:00,74.0,54.0,29.96,SE,140,6.0,10.0,49,0.00,,,0.00,733,weatherlink.com 1.10,2013-05-20 22:52:00,
2013-05-20 16:07:00,74.2,53.0,29.96,SSW,206,6.0,10.0,47,0.00,,,0.00,733,weatherlink.com 1.10,2013-05-20 23:07:00,
2013-05-20 16:22:00,74.4,53.0,29.95,SE,140,5.0,8.0,48,0.00,,,0.00,733,weatherlink.com 1.10,2013-05-20 23:22:00,
2013-05-20 16:37:00,72.2,54.0,29.95,SE,126,6.0,10.0,53,0.00,,,0.00,733,weatherlink.com 1.10,2013-05-20 23:37:00,
2013-05-20 16:52:00,70.2,53.0,29.95,SSE,148,7.0,10.0,55,0.00,,,0.00,733,weatherlink.com 1.10,2013-05-20 23:52:00,
2013-05-20 17:07:00,69.8,52.0,29.95,SSE,168,4.0,10.0,54,0.00,,,0.00,733,weatherlink.com 1.10,2013-05-21 00:07:00,
2013-05-20 17:22:00,71.1,52.0,29.94,SW,214,6.0,11.0,52,0.00,,,0.00,733,weatherlink.com 1.10,2013-05-21 00:22:00,
2013-05-20 17:37:00,69.1,53.0,29.94,ESE,109,3.0,9.0,57,0.00,,,0.00,733,weatherlink.com 1.10,2013-05-21 00:37:00,
2013-05-20 17:52:00,67.3,53.0,29.94,SE,138,4.0,9.0,61,0.00,,,0.00,733,weatherlink.com 1.10,2013-05-21 00:52:00,
2013-05-20 18:07:00,64.3,53.0,29.94,ESE,116,9.0,11.0,67,0.00,,,0.00,733,weatherlink.com 1.10,2013-05-21 01:07:00,
2013-05-20 18:22:00,63.9,53.0,29.94,SE,139,2.0,11.0,68,0.00,,,0.00,733,weatherlink.com 1.10,2013-05-21 01:22:00,
2013-05-20 18:37:00,62.0,53.0,29.94,SE,132,3.0,13.0,72,0.00,,,0.00,733,weatherlink.com 1.10,2013-05-21 01:37:00,
2013-05-20 18:54:00,61.3,53.0,29.93,SE,126,10.0,15.0,73,0.00,,,0.00,733,weatherlink.com 1.10,2013-05-21 01:54:00,
2013-05-20 19:08:00,60.7,52.0,29.93,SE,128,5.0,11.0,74,0.00,,,0.00,733,weatherlink.com 1.10,2013-05-21 02:08:00,
2013-05-20 19:23:00,60.6,53.0,29.93,ESE,120,2.0,11.0,75,0.00,,,0.00,733,weatherlink.com 1.10,2013-05-21 02:23:00,
2013-05-20 19:38:00,59.8,53.0,29.94,SE,132,6.0,10.0,77,0.00,,,0.00,733,weatherlink.com 1.10,2013-05-21 02:38:00,
2013-05-20 19:53:00,58.3,52.0,29.94,East,97,14.0,14.0,79,0.00,,,0.00,733,weatherlink.com 1.10,2013-05-21 02:53:00,
2013-05-20 20:08:00,56.5,51.0,29.94,SE,128,9.0,14.0,83,0.00,,,0.00,733,weatherlink.com 1.10,2013-05-21 03:08:00,
2013-05-20 20:23:00,55.1,51.0,29.94,SE,134,7.0,13.0,86,0.00,,,0.00,733,weatherlink.com 1.10,2013-05-21 03:23:00,
2013-05-20 20:38:00,54.3,51.0,29.94,SE,137,8.0,13.0,88,0.00,,,0.00,733,weatherlink.com 1.10,2013-05-21 03:38:00,
2013-05-20 20:53:00,53.7,50.0,29.94,SE,144,7.0,16.0,88,0.00,,,0.00,733,weatherlink.com 1.10,2013-05-21 03:53:00,
2013-05-20 21:08:00,53.4,50.0,29.95,SE,134,7.0,15.0,89,0.00,,,0.00,733,weatherlink.com 1.10,2013-05-21 04:08:00,
2013-05-20 21:23:00,53.0,50.0,29.95,SE,128,10.0,17.0,89,0.00,,,0.00,733,weatherlink.com 1.10,2013-05-21 04:23:00,
2013-05-20 21:38:00,52.9,50.0,29.95,SE,146,7.0,15.0,90,0.00,,,0.00,733,weatherlink.com 1.10,2013-05-21 04:38:00,
2013-05-20 21:53:00,52.8,50.0,29.96,SSE,158,4.0,15.0,89,0.00,,,0.00,733,weatherlink.com 1.10,2013-05-21 04:53:00,
2013-05-20 22:08:00,52.9,50.0,29.96,SE,130,5.0,13.0,89,0.00,,,0.00,733,weatherlink.com 1.10,2013-05-21 05:08:00,
2013-05-20 22:23:00,53.0,50.0,29.96,SE,132,5.0,9.0,88,0.00,,,0.00,733,weatherlink.com 1.10,2013-05-21 05:23:00,
2013-05-20 22:38:00,52.7,50.0,29.96,SSE,148,5.0,10.0,89,0.00,,,0.00,733,weatherlink.com 1.10,2013-05-21 05:38:00,
2013-05-20 22:53:00,52.6,50.0,29.95,SE,137,6.0,9.0,89,0.00,,,0.00,733,weatherlink.com 1.10,2013-05-21 05:53:00,
2013-05-20 23:08:00,53.1,50.0,29.95,ESE,103,7.0,13.0,89,0.00,,,0.00,733,weatherlink.com 1.10,2013-05-21 06:08:00,
2013-05-20 23:23:00,53.0,50.0,29.95,SE,136,6.0,13.0,89,0.00,,,0.00,733,weatherlink.com 1.10,2013-05-21 06:23:00,
2013-05-20 23:38:00,52.8,50.0,29.94,SE,142,5.0,12.0,89,0.00,,,0.00,733,weatherlink.com 1.10,2013-05-21 06:38:00,
2013-05-20 23:53:00,52.7,50.0,29.94,SE,145,3.0,11.0,89,0.00,,,0.00,733,weatherlink.com 1.10,2013-05-21 06:53:00,